FW5810 Weather Reports


time (UTC)temp
F
wind
direction
speed
knots
gust
knots
rain 1hr
in
rain 24hr
in
rain mn
in
humidity
%
barometer
mb
20200803144029 76 230 3.5 4.3 0.00 0.01 0.01 76 1017.6
20200803143527 76 328 2.6 4.3 0.00 0.01 0.01 78 1017.6
20200803143025 75 176 3.5 4.3 0.00 0.01 0.01 77 1017.6
20200803142522 75 255 2.6 7.0 0.00 0.01 0.01 77 1017.7
20200803142022 75 276 0.0 4.3 0.00 0.01 0.01 79 1017.8
20200803141519 74 171 2.6 6.1 0.00 0.01 0.01 78 1017.5
20200803141018 74 304 0.0 0.9 0.00 0.01 0.01 78 1017.6
20200803140513 74 318 0.0 2.6 0.00 0.01 0.01 79 1017.6
20200803140008 73 312 0.0 0.9 0.00 0.01 0.01 80 1017.7
20200803135504 73 286 2.6 7.0 0.00 0.01 0.01 81 1017.9
20200803135001 72 160 7.8 9.6 0.00 0.01 0.01 80 1017.9
20200803134458 72 197 0.9 3.5 0.00 0.01 0.01 84 1018.1
20200803133957 71 284 0.0 0.9 0.00 0.01 0.01 85 1017.9
20200803133454 71 228 3.5 4.3 0.00 0.01 0.01 85 1017.9
20200803132945 70 268 0.0 2.6 0.00 0.01 0.01 86 1017.9
20200803132442 69 192 1.7 2.6 0.00 0.01 0.01 88 1017.8
20200803131938 68 133 4.3 6.1 0.00 0.01 0.01 90 1017.9
20200803131433 68 133 4.3 4.3 0.00 0.01 0.01 92 1017.8
20200803130933 67 186 4.3 4.3 0.00 0.01 0.01 93 1018.0
20200803130425 67 273 0.0 0.0 0.00 0.01 0.01 95 1017.9
20200803125922 66 227 1.7 4.3 0.00 0.01 0.01 96 1017.7
20200803125418 65 136 2.6 7.0 0.00 0.01 0.01 97 1017.7
20200803124910 66 174 3.5 4.3 0.00 0.01 0.01 97 1017.9
20200803124408 65 141 0.0 0.9 0.00 0.01 0.01 98 1018.0
20200803123908 65 259 0.0 0.0 0.00 0.01 0.01 98 1017.8
20200803123407 65 258 0.0 0.0 0.00 0.01 0.01 98 1017.8
20200803122901 65 262 0.0 0.0 0.00 0.01 0.01 98 1017.9
20200803122357 64 296 0.0 0.0 0.00 0.01 0.01 99 1017.8
20200803121853 64 171 0.0 0.9 0.00 0.01 0.01 99 1017.8
20200803121353 64 292 0.0 0.0 0.00 0.01 0.01 99 1017.6
20200803120857 64 318 0.0 0.0 0.00 0.01 0.01 99 1017.7
20200803120350 64 251 0.0 0.9 0.00 0.01 0.01 99 1017.7
20200803115847 64 233 1.7 2.6 0.00 0.01 0.01 99 1017.6
20200803115342 64 281 0.0 0.9 0.00 0.01 0.01 99 1017.6
20200803114841 64 287 0.9 2.6 0.00 0.01 0.01 99 1017.5
20200803114341 64 286 0.0 0.0 0.00 0.01 0.01 99 1017.5
20200803113839 64 223 0.0 0.9 0.00 0.01 0.01 99 1017.5
20200803113336 63 158 0.0 0.0 0.00 0.01 0.01 99 1017.3
20200803112835 63 167 0.0 0.0 0.00 0.01 0.01 99 1017.3
20200803112332 63 209 0.0 0.0 0.00 0.01 0.01 99 1017.2
20200803111828 63 269 0.0 0.0 0.00 0.01 0.01 99 1017.4
20200803111323 63 159 0.0 0.0 0.00 0.01 0.01 99 1017.6
20200803110821 63 235 0.0 0.0 0.00 0.01 0.01 99 1017.5
20200803110319 63 225 0.0 0.0 0.00 0.01 0.01 99 1017.4
20200803105817 62 298 0.0 0.0 0.00 0.01 0.01 99 1017.3
20200803105313 62 287 0.0 0.0 0.00 0.01 0.01 99 1017.5
20200803104810 63 278 0.0 0.0 0.00 0.01 0.01 99 1017.2
20200803104305 63 330 0.0 0.0 0.00 0.01 0.01 99 1017.1
20200803103804 63 296 0.0 0.0 0.00 0.01 0.01 99 1017.1
20200803103304 62 305 0.0 0.0 0.00 0.01 0.01 99 1017.1
20200803102803 63 308 0.0 0.0 0.00 0.01 0.01 99 1017.1
20200803102301 63 307 0.0 0.0 0.00 0.01 0.01 99 1017.0
20200803101758 63 180 0.0 0.0 0.00 0.01 0.01 99 1017.3
20200803101257 62 280 0.0 0.0 0.00 0.01 0.01 99 1017.1
20200803100753 62 319 0.0 0.0 0.00 0.01 0.01 99 1016.9
20200803100248 62 319 0.0 0.0 0.00 0.01 0.01 99 1016.9
20200803095740 62 297 0.0 0.0 0.00 0.01 0.01 99 1017.0
20200803095238 62 213 0.0 0.0 0.00 0.01 0.01 99 1016.6
20200803094731 62 324 0.0 0.0 0.00 0.01 0.01 99 1016.7
20200803094229 62 318 0.0 0.0 0.00 0.01 0.01 99 1016.5
20200803093728 62 321 0.0 0.0 0.00 0.01 0.01 99 1016.4
20200803093224 62 323 0.0 0.0 0.00 0.01 0.01 99 1016.5
20200803092720 62 323 0.0 0.0 0.00 0.01 0.01 99 1016.6
20200803092217 62 323 0.0 0.0 0.00 0.01 0.01 99 1016.5
20200803091715 62 323 0.0 0.0 0.00 0.01 0.01 99 1016.4
20200803091209 62 238 0.0 0.0 0.00 0.01 0.01 99 1016.5
20200803090703 62 292 0.0 0.0 0.00 0.01 0.01 99 1016.5
20200803090203 62 249 0.0 0.0 0.00 0.01 0.01 99 1016.5
20200803085700 62 307 0.0 0.0 0.00 0.01 0.01 99 1016.5
20200803085156 62 334 0.0 0.0 0.00 0.01 0.01 99 1016.7
20200803084652 62 290 0.0 0.0 0.00 0.01 0.01 99 1016.5
20200803084148 62 298 0.0 0.0 0.00 0.01 0.01 98 1016.7
20200803083639 62 298 0.0 0.0 0.00 0.01 0.01 99 1016.7
20200803083134 62 298 0.0 0.0 0.00 0.01 0.01 99 1016.6
20200803082629 62 298 0.0 0.0 0.00 0.01 0.01 98 1016.7
20200803082128 62 298 0.0 0.0 0.00 0.01 0.01 99 1016.7
20200803081629 62 297 0.0 0.0 0.00 0.01 0.01 99 1016.9
20200803081126 62 272 0.0 0.0 0.00 0.01 0.01 98 1016.7
20200803080625 62 304 0.0 0.0 0.00 0.01 0.01 98 1016.5
20200803080123 62 294 0.0 0.0 0.00 0.01 0.01 98 1016.6
20200803075620 62 311 0.0 0.0 0.00 0.01 0.01 98 1016.9
20200803075118 62 280 0.0 0.0 0.00 0.01 0.01 98 1016.9
20200803074615 62 297 0.0 0.0 0.00 0.01 0.01 98 1016.7
20200803074112 62 297 0.0 0.0 0.00 0.01 0.01 98 1017.0
20200803073610 62 297 0.0 0.0 0.00 0.01 0.01 98 1016.9
20200803073107 62 286 0.0 0.0 0.00 0.01 0.01 98 1016.7
20200803072601 62 304 0.0 0.0 0.00 0.01 0.01 98 1016.7
20200803072057 62 304 0.0 0.0 0.00 0.01 0.01 98 1016.6
20200803071553 62 304 0.0 0.0 0.00 0.01 0.01 98 1016.6
20200803071049 62 304 0.0 0.0 0.00 0.01 0.01 98 1016.9
20200803070545 62 307 0.0 0.0 0.00 0.01 0.01 98 1016.7
20200803070039 62 298 0.0 0.0 0.00 0.01 0.01 98 1016.5
20200803065533 63 298 0.0 0.0 0.00 0.01 0.01 98 1016.6
20200803065032 63 293 0.0 0.0 0.00 0.01 0.01 98 1016.6
20200803064530 63 308 0.0 0.0 0.00 0.01 0.01 98 1016.6
20200803064028 63 309 0.0 0.0 0.00 0.01 0.01 98 1016.6
20200803063527 63 300 0.0 0.0 0.00 0.01 0.01 98 1016.7
20200803063025 63 299 0.0 0.0 0.00 0.01 0.01 98 1016.9
20200803062520 63 300 0.0 0.0 0.00 0.01 0.01 98 1016.9
20200803062018 63 304 0.0 0.0 0.00 0.01 0.01 98 1016.7
20200803061516 63 304 0.0 0.0 0.00 0.01 0.01 98 1016.9
20200803061013 63 304 0.0 0.0 0.00 0.01 0.01 98 1016.7
20200803060512 63 296 0.0 0.0 0.07 0.01 0.01 98 1016.7
20200803060009 63 296 0.0 0.0 0.00 0.00 0.00 98 1016.6
20200803055506 63 318 0.0 0.0 0.00 0.00 0.00 98 1016.7
20200803055005 63 301 0.0 0.0 0.00 0.00 0.00 98 1016.6
20200803054505 63 297 0.0 0.0 0.00 0.00 0.00 98 1017.1
20200803053959 63 297 0.0 0.0 0.00 0.00 0.00 98 1016.7
20200803053459 64 294 0.0 0.0 0.00 0.00 0.00 98 1016.9
20200803052958 63 281 0.0 0.0 0.00 0.00 0.00 98 1016.7
20200803052453 63 290 0.0 0.0 0.00 0.00 0.00 98 1016.7
20200803051947 63 302 0.0 0.0 0.00 0.00 0.00 98 1016.9
20200803051446 64 301 0.0 0.0 0.00 0.00 0.00 98 1017.0
20200803050942 64 308 0.0 0.0 0.00 0.00 0.00 98 1016.9
20200803050437 64 290 0.0 0.0 0.00 0.00 0.00 98 1016.6
20200803045931 64 292 0.0 0.0 0.00 0.00 0.00 98 1017.0
20200803045431 64 300 0.0 0.0 0.00 0.00 0.00 98 1016.6
20200803044926 64 315 0.0 0.0 0.00 0.00 0.00 98 1016.6
20200803044422 64 221 0.0 0.0 0.00 0.00 0.00 98 1016.6
20200803043918 64 259 0.0 0.0 0.00 0.00 0.00 98 1016.9
20200803043418 64 294 0.0 2.6 0.00 0.00 0.00 98 1016.7
20200803042911 64 203 0.0 0.0 0.00 0.00 0.00 98 1016.9
20200803042410 64 273 0.0 0.0 0.00 0.00 0.00 98 1016.7
20200803041907 64 259 0.0 0.0 0.00 0.00 0.00 98 1016.6
20200803041405 64 284 0.0 0.0 0.00 0.00 0.00 98 1016.6
20200803040859 64 289 0.0 0.0 0.00 0.00 0.00 98 1016.4
20200803040355 64 294 0.0 0.0 0.00 0.00 0.00 98 1016.5
20200803035847 64 356 0.0 0.0 0.00 0.11 0.11 97 1016.5
20200803035342 64 289 0.0 0.0 0.00 0.11 0.11 97 1016.3
20200803034838 64 279 0.0 0.0 0.00 0.11 0.11 97 1016.6
20200803034337 64 302 0.0 0.0 0.00 0.11 0.11 98 1016.4
20200803033835 65 297 0.0 0.0 0.00 0.11 0.11 97 1016.5
20200803033334 65 301 0.0 0.0 0.00 0.11 0.11 97 1016.5
20200803032832 64 284 0.0 0.0 0.00 0.11 0.11 97 1016.5
20200803032326 65 295 0.0 0.0 0.00 0.11 0.11 97 1016.3
20200803031825 65 302 0.0 0.0 0.00 0.11 0.11 97 1016.3
20200803031320 65 302 0.0 0.0 0.00 0.11 0.11 97 1016.4
20200803030816 65 292 0.0 0.0 0.00 0.11 0.11 97 1016.2
20200803030312 65 319 0.0 0.0 0.00 0.11 0.11 97 1016.4
20200803025812 65 319 0.0 0.0 0.00 0.11 0.11 97 1016.3
20200803025309 65 313 0.0 0.0 0.00 0.11 0.11 97 1016.3
20200803024807 65 303 0.0 0.0 0.00 0.11 0.11 97 1016.1
20200803024307 65 309 0.0 0.0 0.00 0.11 0.11 97 1016.3
20200803023804 65 55 0.9 2.6 0.00 0.11 0.11 97 1016.3
20200803023301 65 302 0.0 0.0 0.00 0.11 0.11 97 1016.2
20200803022755 65 249 0.0 0.0 0.00 0.11 0.11 97 1016.5
20200803022251 65 285 0.0 0.0 0.00 0.11 0.11 97 1016.2
20200803021745 65 303 0.0 0.0 0.00 0.11 0.11 97 1016.1
20200803021244 65 283 0.0 0.0 0.00 0.11 0.11 97 1016.1
20200803020741 65 297 0.0 0.0 0.00 0.11 0.11 97 1016.0
20200803020238 65 302 0.0 0.0 0.00 0.11 0.11 97 1015.9
20200803015734 65 203 0.0 0.0 0.00 0.11 0.11 97 1016.1
20200803015230 65 166 0.0 0.9 0.00 0.11 0.11 97 1015.7
20200803014728 65 289 0.0 0.0 0.00 0.11 0.11 97 1015.9
20200803014226 65 286 0.0 0.0 0.00 0.11 0.11 97 1016.0
20200803013721 65 318 0.0 0.0 0.00 0.11 0.11 97 1015.9
20200803013216 65 318 0.0 0.0 0.00 0.11 0.11 97 1015.9
20200803012714 65 308 0.0 0.0 0.00 0.11 0.11 96 1015.8
20200803012212 66 302 0.0 0.0 0.00 0.11 0.11 96 1015.6
20200803011709 66 321 0.0 0.0 0.00 0.11 0.11 96 1015.9
20200803011205 66 273 0.0 0.0 0.00 0.11 0.11 96 1015.7
20200803010705 66 309 0.0 0.0 0.00 0.11 0.11 96 1015.5
20200803010159 66 300 0.0 0.0 0.00 0.11 0.11 96 1015.5
20200803005651 66 272 0.0 0.9 0.00 0.11 0.11 96 1015.4
20200803005151 66 310 0.0 0.9 0.00 0.11 0.11 96 1015.2
20200803004648 66 298 0.0 0.0 0.00 0.11 0.11 96 1015.0
20200803004141 66 309 0.0 0.0 0.00 0.11 0.11 96 1015.1
20200803003640 66 291 0.0 0.0 0.00 0.11 0.11 96 1015.3
20200803003137 66 295 0.0 0.0 0.00 0.11 0.11 96 1015.1
20200803002636 66 303 0.0 0.0 0.00 0.11 0.11 96 1015.0
20200803002134 66 315 0.0 0.0 0.00 0.11 0.11 96 1015.0
20200803001634 66 310 0.0 0.0 0.00 0.11 0.11 96 1014.9
20200803001129 66 323 0.0 0.0 0.00 0.11 0.11 96 1014.9
20200803000624 66 324 0.0 0.0 0.00 0.11 0.11 96 1014.5
20200803000124 66 304 0.0 0.0 0.00 0.11 0.11 96 1014.7
20200802235621 66 310 0.0 0.0 0.00 0.11 0.11 96 1014.7
20200802235119 66 299 0.0 0.9 0.00 0.11 0.11 96 1014.5
20200802234617 66 299 0.0 0.9 0.00 0.11 0.11 96 1014.4
20200802234114 66 311 0.0 2.6 0.00 0.11 0.11 96 1014.3
20200802233611 66 321 0.0 2.6 0.00 0.11 0.11 96 1014.4
20200802233107 66 316 0.0 0.9 0.00 0.11 0.11 96 1014.3
20200802232605 66 306 0.0 2.6 0.00 0.11 0.11 96 1014.2
20200802232104 66 306 0.0 2.6 0.00 0.11 0.11 96 1014.0
20200802231558 66 286 0.0 0.9 0.00 0.11 0.11 96 1014.1
20200802231056 66 300 0.0 0.0 0.00 0.11 0.11 96 1013.9
20200802230556 66 312 1.7 3.5 0.00 0.11 0.11 96 1013.8
20200802230054 66 326 0.9 4.3 0.00 0.11 0.11 96 1014.0
20200802225552 66 229 0.0 2.6 0.00 0.11 0.11 96 1013.8
20200802225047 66 283 1.7 4.3 0.00 0.11 0.11 96 1013.8
20200802224544 66 299 0.0 4.3 0.00 0.11 0.11 96 1013.7
20200802224044 66 200 1.7 2.6 0.00 0.11 0.11 96 1013.5
20200802223537 66 279 0.9 6.1 0.00 0.11 0.11 96 1013.7
20200802223035 66 322 0.0 0.9 0.00 0.11 0.11 96 1013.7
20200802222535 66 297 0.0 2.6 0.00 0.11 0.11 96 1013.5
20200802222034 66 127 0.9 7.0 0.00 0.11 0.11 96 1013.5
20200802221529 66 266 0.9 3.5 0.04 0.11 0.11 96 1013.5
20200802221027 67 317 0.0 0.9 0.04 0.11 0.11 95 1013.4
20200802220525 66 300 0.0 2.6 0.00 0.10 0.10 95 1013.4
20200802220024 66 334 0.0 6.1 0.00 0.10 0.10 95 1013.2
20200802215517 67 248 1.7 6.1 0.00 0.10 0.10 95 1013.1
20200802215014 67 310 0.0 3.5 0.00 0.10 0.10 95 1013.4
20200802214512 67 256 4.3 7.8 0.07 0.10 0.10 94 1013.0
20200802214008 67 256 3.5 6.1 0.00 0.09 0.09 94 1013.0
20200802213506 67 207 3.5 8.7 0.04 0.09 0.09 94 1013.0
20200802213003 67 251 0.9 6.1 0.04 0.09 0.09 94 1013.0
20200802212457 67 33 0.0 7.8 0.00 0.08 0.08 93 1012.8
20200802211956 68 85 1.7 9.6 0.00 0.08 0.08 93 1012.7
20200802211454 68 6 2.6 4.3 0.00 0.08 0.08 92 1012.8
20200802210952 68 257 4.3 8.7 0.00 0.08 0.08 92 1012.6
20200802210448 68 302 0.0 7.0 0.00 0.08 0.08 91 1012.6
20200802205948 68 270 0.0 4.3 0.00 0.08 0.08 91 1012.5
20200802205442 68 312 0.0 6.1 0.00 0.08 0.08 90 1012.6
20200802204937 69 137 0.9 4.3 0.00 0.08 0.08 89 1012.4
20200802204434 69 326 0.9 7.8 0.00 0.08 0.08 87 1012.3
20200802203927 69 280 0.0 2.6 0.00 0.08 0.08 88 1012.2
20200802203427 69 305 1.7 4.3 0.00 0.08 0.08 88 1012.3
20200802202923 69 323 4.3 7.8 0.00 0.08 0.08 88 1012.3
20200802202422 69 315 6.1 7.8 0.00 0.08 0.08 87 1012.1
20200802201918 69 274 2.6 7.0 0.00 0.08 0.08 88 1012.0
20200802201416 69 342 0.9 6.1 0.00 0.08 0.08 89 1011.9
20200802200913 69 273 4.3 6.1 0.00 0.08 0.08 89 1011.8
20200802200410 69 294 1.7 4.3 0.00 0.08 0.08 88 1011.7
20200802195910 69 312 4.3 7.8 0.00 0.08 0.08 88 1011.8
20200802195405 69 300 0.0 3.5 0.00 0.08 0.08 89 1011.7
20200802194903 69 26 1.7 6.1 0.00 0.08 0.08 88 1011.6
20200802194401 69 322 2.6 3.5 0.00 0.08 0.08 88 1011.7
20200802193859 69 275 1.7 6.1 0.00 0.08 0.08 87 1011.7
20200802193354 69 292 6.1 15.6 0.00 0.08 0.08 87 1011.6
20200802192850 69 315 4.3 12.2 0.00 0.08 0.08 87 1011.6
20200802192349 69 220 2.6 9.6 0.00 0.08 0.08 90 1011.5
20200802191842 69 164 0.0 3.5 0.00 0.08 0.08 90 1011.4
20200802191340 69 228 2.6 7.8 0.00 0.08 0.08 90 1011.3
20200802190838 69 240 5.2 7.0 0.00 0.08 0.08 90 1011.4
20200802190336 69 223 4.3 11.3 0.00 0.08 0.08 91 1011.3
20200802185832 69 249 2.6 6.1 0.00 0.08 0.08 91 1011.2
20200802185331 69 2 2.6 7.8 0.00 0.08 0.08 92 1011.1
20200802184826 69 232 3.5 7.0 0.00 0.08 0.08 93 1011.3
20200802184321 69 229 1.7 3.5 0.07 0.08 0.08 93 1011.2
20200802183819 69 215 0.9 9.6 0.07 0.08 0.08 92 1011.0
20200802183316 69 205 0.9 7.8 0.00 0.07 0.07 91 1011.0
20200802182813 70 294 3.5 7.0 0.00 0.07 0.07 89 1010.9
20200802182313 70 295 4.3 9.6 0.00 0.07 0.07 88 1010.9
20200802181810 70 264 5.2 7.8 0.00 0.07 0.07 89 1010.7
20200802181309 69 277 0.9 7.8 0.00 0.07 0.07 90 1010.7
20200802180807 69 222 1.7 7.8 0.00 0.07 0.07 91 1010.6
20200802180302 69 231 4.3 7.0 0.00 0.07 0.07 91 1010.6
20200802175758 69 248 2.6 9.6 0.04 0.07 0.07 91 1010.5
20200802175255 70 289 2.6 6.1 0.00 0.06 0.06 91 1010.5
20200802174753 71 236 7.0 7.8 0.00 0.06 0.06 88 1010.7
20200802174250 71 236 2.6 4.3 0.00 0.06 0.06 87 1010.6
20200802173745 71 225 2.6 4.3 0.00 0.06 0.06 88 1010.5
20200802173244 71 306 0.9 6.1 0.00 0.06 0.06 88 1010.5
20200802172743 70 330 5.2 7.8 0.00 0.06 0.06 89 1010.2
20200802172238 70 298 1.7 7.0 0.00 0.06 0.06 90 1010.1
20200802171735 70 285 3.5 7.8 0.00 0.06 0.06 90 1010.2
20200802171231 70 274 3.5 6.1 0.00 0.06 0.06 90 1010.2
20200802170729 70 291 1.7 4.3 0.00 0.06 0.06 90 1010.2
20200802170228 70 190 1.7 7.8 0.00 0.06 0.06 89 1010.3
20200802165724 71 259 3.5 4.3 0.00 0.06 0.06 89 1010.0
20200802165219 70 289 0.9 3.5 0.00 0.06 0.06 89 1010.0
20200802164715 70 339 2.6 4.3 0.00 0.06 0.06 90 1009.9
20200802164211 70 226 2.6 3.5 0.00 0.06 0.06 90 1009.9
20200802163711 70 247 4.3 6.1 0.00 0.06 0.06 90 1009.8
20200802163205 70 245 2.6 4.3 0.00 0.06 0.06 91 1009.8
20200802162703 70 300 2.6 4.3 0.00 0.06 0.06 91 1009.7
20200802162202 70 218 1.7 4.3 0.00 0.06 0.06 92 1009.8
20200802161700 69 264 2.6 6.1 0.00 0.06 0.06 93 1009.7
20200802161155 69 316 3.5 8.7 0.00 0.06 0.06 93 1009.7
20200802160652 69 215 0.9 3.5 0.00 0.06 0.06 94 1009.7
20200802160149 69 190 1.7 8.7 0.00 0.06 0.06 94 1009.7
20200802155646 69 253 4.3 7.0 0.00 0.06 0.06 94 1009.6
20200802155141 69 195 3.5 4.3 0.00 0.06 0.06 94 1009.6
20200802154638 69 259 1.7 7.0 0.00 0.06 0.06 94 1009.4
20200802154138 69 237 0.9 6.1 0.00 0.06 0.06 94 1009.4
20200802153634 69 255 2.6 6.1 0.00 0.06 0.06 94 1009.5
20200802153128 70 173 4.3 12.2 0.07 0.06 0.06 93 1009.3
20200802152624 70 287 1.7 8.7 0.07 0.05 0.05 93 1009.3
20200802152120 71 232 2.6 3.5 0.07 0.05 0.05 93 1009.3
20200802151619 71 248 3.5 6.1 0.00 0.03 0.03 91 1009.3
20200802151115 71 232 3.5 4.3 0.00 0.03 0.03 90 1009.2
20200802150611 72 342 2.6 7.0 0.00 0.03 0.03 88 1009.2
20200802150107 72 277 4.3 8.7 0.00 0.03 0.03 87 1009.1
20200802145604 73 216 2.6 7.0 0.00 0.03 0.03 86 1008.9
20200802145100 73 145 3.5 6.1 0.00 0.03 0.03 84 1009.0
20200802144553 73 47 0.0 13.0 0.00 0.03 0.03 84 1009.0